metlocid,date_time,avg_netrad,std_netrad,min_netrad,max_netrad,n_netrad,n_comments
FRSM,12/21/10,-3.242592604,1.830001737,-5.6,1.3,54,1
FRSM,12/22/10,-2.508333328,2.090865676,-5.7,1.6,96,0
FRSM,12/23/10,-2.658333337,2.129080195,-5.8,1.6,96,0
FRSM,12/24/10,-2.433333337,1.951445723,-6,1.6,96,0
FRSM,12/25/10,-2.12604167,2.05089171,-7,0.4,96,0
FRSM,12/26/10,-1.284374998,0.893523843,-3,1,96,0
FRSM,12/27/10,-1.863541671,1.513178589,-5.6,1.1,96,0
FRSM,12/28/10,-1.173958337,0.969236788,-4,0.4,96,0
FRSM,12/29/10,-2.158333333,1.579851202,-5.6,1,96,0
FRSM,12/30/10,-2.482291669,1.933091059,-6.1,1.2,96,0
FRSM,12/31/10,-2.505208334,1.922956591,-5.6,0.2,96,0
FRSM,1/1/11,-2.145833344,1.894919345,-6.4,0.4,96,0
FRSM,1/2/11,-0.825000003,0.797100003,-3.5,0.2,96,0
FRSM,1/3/11,-1.032291665,0.844984552,-2.9,0,96,0
FRSM,1/4/11,-0.921875006,0.951807488,-3.9,1.3,96,0
FRSM,1/5/11,-1.771875,1.768359516,-5.7,1.8,96,0
FRSM,1/6/11,-0.983333332,1.357060814,-5.6,1.7,96,0
FRSM,1/7/11,-0.725,1.442220512,-4.3,1.5,96,0
FRSM,1/8/11,-1.060416673,1.441963523,-4.3,1.8,96,0
FRSM,1/9/11,-1.626041672,2.159690278,-8.3,1.9,96,0
FRSM,1/10/11,-1.775000017,1.657455261,-5,0,96,0
FRSM,1/11/11,-1.567708338,1.552417109,-6.2,1.3,96,0
FRSM,1/12/11,-1.277083332,1.328511562,-4.7,1.8,96,0
FRSM,1/13/11,-1.350000001,1.110144606,-3.8,0.7,96,0
FRSM,1/14/11,-1.901041679,1.619128747,-5.8,0,96,0
FRSM,1/15/11,-1.82083333,1.635456897,-5.7,0.5,96,0
FRSM,1/16/11,-2.254166684,1.869416858,-5,1,96,0
FRSM,1/17/11,-2.282291676,2.20539983,-5.6,1.3,96,0
FRSM,1/18/11,-1.952083337,1.934940731,-5.5,1.5,96,0
FRSM,1/19/11,-0.99999999,1.084823517,-5.7,0.2,96,0
FRSM,1/20/11,-1.072916666,0.862246655,-2.5,0.1,96,0
FRSM,1/21/11,-1.778125001,1.661401014,-5.8,1.2,96,0
FRSM,1/22/11,-2.252083333,2.094854808,-5.5,1.3,96,0
FRSM,1/23/11,-0.737500005,0.976055441,-4.4,1.4,96,0
FRSM,1/24/11,-2.177083328,2.176258445,-7.2,0.2,96,0
FRSM,1/25/11,-2.028125003,1.942418626,-5.3,1.3,96,0
FRSM,1/26/11,-1.666666654,1.943446012,-6.4,1.3,96,0
FRSM,1/27/11,-1.558333336,1.497694132,-4.5,1,96,0
FRSM,1/28/11,-1.855208332,1.897303892,-4.9,1.3,96,0
FRSM,1/29/11,-1.758333336,2.029346116,-5.6,1.2,96,0
FRSM,1/30/11,-0.433333337,0.398858022,-1.3,0.2,96,0
FRSM,1/31/11,-0.760416664,1.306943333,-3.8,1,96,0
FRSM,2/1/11,-1.289583335,1.698759867,-4.5,1.5,96,0
FRSM,2/2/11,-1.63541666,1.905724283,-4.7,1.5,96,0
FRSM,2/3/11,0.125000002,0.076777192,-0.1,0.3,96,0
FRSM,2/4/11,-0.737499993,1.247080791,-4.6,1.2,96,0
FRSM,2/5/11,-1.183333334,1.810767019,-4.1,1.3,96,0
FRSM,2/6/11,-1.165625,1.60235538,-3.8,1.3,96,0
FRSM,2/7/11,-1.290625004,1.80823137,-4.4,1.3,96,0
FRSM,2/8/11,-0.992708334,1.47913523,-3.9,0.7,96,0
FRSM,2/9/11,-1.554166661,2.182799575,-6.6,1,96,0
FRSM,2/10/11,-1.219791669,1.643335499,-4.3,1,96,0
FRSM,2/11/11,-0.097916669,0.483404418,-0.8,0.9,96,0
FRSM,2/12/11,-0.491666663,0.743203116,-2.9,0.8,96,0
FRSM,2/13/11,-0.365625,0.827148317,-1.5,1.1,96,0
FRSM,2/14/11,-0.979166673,1.64891778,-4.1,1.2,96,0
FRSM,2/15/11,-0.847916662,1.412722576,-3.8,1,96,0
FRSM,2/16/11,-0.73020833,1.385117873,-3.7,1,96,0
FRSM,2/17/11,-0.788541663,1.259228646,-3.3,0.9,96,0
FRSM,2/18/11,-0.54895833,0.909597342,-3.5,0.4,96,0
FRSM,2/19/11,-1.013541661,1.301789841,-3.4,0.6,96,0
FRSM,2/20/11,-0.910416666,1.503573232,-3.6,0.9,96,0
FRSM,2/21/11,-0.829166669,1.489607266,-3.5,1,96,0
FRSM,2/22/11,0.087500001,0.303401768,-0.6,0.8,96,0
FRSM,2/23/11,-0.31354167,0.367815685,-1.4,0.1,96,0
FRSM,2/24/11,-0.330208333,0.951245153,-2.8,0.8,96,0
FRSM,2/25/11,-0.346875004,1.196745873,-2.5,1,96,0
FRSM,2/26/11,-0.327083336,1.124416029,-2.4,0.9,96,0
FRSM,2/27/11,-0.265625,1.108420227,-2.7,1,96,0
FRSM,2/28/11,-0.24166667,1.076120387,-2.6,1,96,0
FRSM,3/1/11,0.115624998,0.387523345,-0.5,0.9,96,0
FRSM,3/2/11,0.113541668,0.788685757,-2,1,96,0
FRSM,3/3/11,-0.131250001,1.009878835,-2.1,1,96,0
FRSM,3/4/11,0.041666667,0.785482306,-1.8,0.9,96,0
FRSM,3/5/11,-0.033333328,0.841635831,-1.9,0.8,96,0
FRSM,3/6/11,-0.046874996,0.914555183,-2,0.8,96,0
FRSM,3/7/11,0.018749999,0.588005103,-1.2,0.8,96,0
FRSM,3/8/11,-0.091666666,0.780508158,-1.8,0.9,96,0
FRSM,3/9/11,0.071874993,0.915561734,-1.7,1,96,0
FRSM,3/10/11,-0.004166667,0.840791195,-1.8,0.8,96,0
FRSM,3/11/11,0.115624997,0.472246175,-0.9,0.8,96,0
FRSM,3/12/11,-0.066666667,0.837624048,-1.8,0.9,96,0
FRSM,3/13/11,0.131250001,0.644378529,-1.2,0.9,96,0
FRSM,3/14/11,0.134375004,0.85554884,-1.6,0.9,96,0
FRSM,3/15/11,0.131250003,0.841591538,-1.6,0.9,96,0
FRSM,3/16/11,0.148958335,0.844797678,-1.6,0.9,96,0
FRSM,3/17/11,0.278124996,0.787828878,-1.4,1.1,96,0
FRSM,3/18/11,0.247916662,0.800128824,-1.4,1.1,96,0
FRSM,3/19/11,0.236458333,0.696777509,-1.4,0.9,96,0
FRSM,3/20/11,0.077083331,0.629365468,-1.2,0.8,96,0
FRSM,3/21/11,0.111458332,0.46856327,-0.8,0.9,96,0
FRSM,3/22/11,0.065625001,0.285741191,-1.1,0.6,96,0
FRSM,3/23/11,0.100000001,0.209761774,-0.4,0.6,96,0
FRSM,3/24/11,0.195833337,0.341796089,-0.5,0.7,96,0
FRSM,3/25/11,0.417708327,0.613015802,-0.9,1,96,0
FRSM,3/26/11,0.454166665,0.530524402,-0.8,1.1,96,0
FRSM,3/27/11,0.425,0.470609907,-0.6,1,96,0
FRSM,3/28/11,0.405208332,0.497862761,-0.7,0.9,96,0
FRSM,3/29/11,0.357291669,0.470552826,-0.7,0.8,96,0
FRSM,3/30/11,0.490624995,0.527771509,-0.6,1,96,0
FRSM,3/31/11,0.446874996,0.412170922,-0.6,0.8,96,0
FRSM,4/1/11,0.462500002,0.330947602,-0.3,0.9,96,0
FRSM,4/2/11,0.546874998,0.390937638,-0.4,0.9,96,0
FRSM,4/3/11,0.527083337,0.334500154,-0.3,0.9,96,0
FRSM,4/4/11,0.447916667,0.356585907,-0.4,0.9,96,0
FRSM,4/5/11,0.710416669,0.164463505,0.3,1,96,0
FRSM,4/6/11,0.290625004,0.198985915,0.1,0.7,96,0
FRSM,4/7/11,0.455208339,0.245322469,0,0.9,96,0
FRSM,4/8/11,0.771874996,0.231108594,0.1,1,96,0
FRSM,4/9/11,0.657291667,0.149908595,0.2,0.9,96,0
FRSM,4/10/11,0.185416671,0.19998904,-0.1,0.7,96,0
FRSM,4/11/11,0.172916668,0.186083832,0,0.7,96,0
FRSM,4/12/11,0.690625005,0.115237163,0.3,1,96,0
FRSM,4/13/11,0.744791668,0.084442184,0.4,0.9,96,0
FRSM,4/14/11,0.047916668,0.136866565,-0.1,0.7,96,0
FRSM,4/15/11,0.093750002,0.090393877,0,0.4,96,0
FRSM,4/16/11,0.316666671,0.278214864,0,0.8,96,0
FRSM,4/17/11,0.802083335,0.079444343,0.7,1.1,96,0
FRSM,4/18/11,0.846874994,0.136846533,0.5,1.1,96,0
FRSM,4/19/11,0.76875,0.070056369,0.6,0.9,96,0
FRSM,4/20/11,0.47604167,0.201961322,0.2,0.8,96,0
FRSM,4/21/11,0.781250001,0.112682598,0.6,1.1,96,0
FRSM,4/22/11,0.707291671,0.089730341,0.5,0.9,96,0
FRSM,4/23/11,0.680208333,0.059151521,0.5,0.8,96,0
FRSM,4/24/11,0.705208331,0.067073861,0.6,0.9,96,0
FRSM,4/25/11,0.642708345,0.072176371,0.5,0.8,96,0
FRSM,4/26/11,0.494791674,0.17312593,0,0.8,96,0
FRSM,4/27/11,0.77083333,0.09281182,0.6,1,96,0
FRSM,4/28/11,0.295833338,0.262745293,0,0.8,96,0
FRSM,4/29/11,0.540625005,0.206003638,0.2,0.8,96,0
FRSM,4/30/11,0.700000005,0.113323012,0.4,0.9,96,0
FRSM,5/1/11,0.788541664,0.079299285,0.5,0.9,96,0
FRSM,5/2/11,0.704166667,0.145034775,0.3,1,96,0
FRSM,5/3/11,0.503125007,0.268113537,0,0.9,96,0
FRSM,5/4/11,0.752083336,0.090587744,0.5,0.9,96,0
FRSM,5/5/11,0.742708336,0.072176381,0.6,0.9,96,0
FRSM,5/6/11,0.668750002,0.089809735,0.4,0.8,96,0
FRSM,5/7/11,0.765625004,0.104456607,0.4,1,96,0
FRSM,5/8/11,0.648958337,0.133767108,0.1,0.9,96,0
FRSM,5/9/11,0.537500005,0.188204814,0.2,0.8,96,0
FRSM,5/10/11,0.313541671,0.24692628,0,0.9,96,0
FRSM,5/11/11,0.705208333,0.071627386,0.5,0.8,96,0
FRSM,5/12/11,0.826041669,0.110734188,0.6,1.1,96,0
FRSM,5/13/11,0.646875005,0.174085957,0.3,0.9,96,0
FRSM,5/14/11,0.460416669,0.285243813,0.1,0.9,96,0
FRSM,5/15/11,0.810416662,0.090004861,0.6,0.9,96,0
FRSM,5/16/11,0.708333337,0.076318812,0.5,0.8,96,0
FRSM,5/17/11,0.732291667,0.068816759,0.5,0.8,96,0
FRSM,5/18/11,0.26354167,0.203712797,0,0.7,96,0
FRSM,5/19/11,0.566666667,0.196638413,0.2,0.8,96,0
FRSM,5/20/11,0.240625006,0.115692996,0.1,0.6,96,0
FRSM,5/21/11,0.245833337,0.158224803,0.1,0.6,96,0
FRSM,5/22/11,0.593750005,0.168468327,0.2,0.9,96,0
FRSM,5/23/11,0.627083336,0.255663908,0,1,96,0
FRSM,5/24/11,0.737500003,0.086145528,0.5,0.9,96,0
FRSM,5/25/11,0.683333335,0.117577894,0.3,0.8,96,0
FRSM,5/26/11,0.666666666,0.080350105,0.4,0.8,96,0
FRSM,5/27/11,0.720833335,0.135271002,0.2,0.9,96,0
FRSM,5/28/11,0.828124994,0.090266409,0.6,1,96,0
FRSM,5/29/11,0.684374998,0.067008435,0.5,0.9,96,0
FRSM,5/30/11,0.34166667,0.266227709,0,0.8,96,0
FRSM,5/31/11,0.33958334,0.223125726,0,0.7,96,0
FRSM,6/1/11,0.38020834,0.167721443,0.1,0.8,96,0
FRSM,6/2/11,0.325000007,0.129777139,0.1,0.6,96,0
FRSM,6/3/11,0.380208341,0.192829238,0.1,0.9,96,0
FRSM,6/4/11,0.669791667,0.116184777,0.2,0.9,96,0
FRSM,6/5/11,0.708333333,0.086653173,0.5,0.8,96,0
FRSM,6/6/11,0.683333337,0.13739429,0.4,1,96,0
FRSM,6/7/11,0.713541669,0.15601605,0.3,1,96,0
FRSM,6/8/11,0.785416672,0.052272905,0.7,1,96,0
FRSM,6/9/11,0.273958338,0.186516427,0,0.8,96,0
FRSM,6/10/11,0.337500006,0.11986835,0.2,0.6,96,0
FRSM,6/11/11,0.534375009,0.088052768,0.3,0.7,96,0
FRSM,6/12/11,0.539583334,0.22871686,0.1,0.8,96,0
FRSM,6/13/11,0.240625004,0.135784758,0.1,0.5,96,0
FRSM,6/14/11,0.441666672,0.185623652,0.2,0.8,96,0
FRSM,6/15/11,0.659375002,0.120156145,0.3,0.8,96,0
FRSM,6/16/11,0.735416671,0.071051009,0.6,0.8,96,0
FRSM,6/17/11,0.712500005,0.077119181,0.6,0.8,96,0
FRSM,6/18/11,0.876041656,0.075036536,0.7,1.1,96,0
FRSM,6/19/11,0.419791671,0.261018166,0,0.8,96,0
FRSM,6/20/11,0.417708339,0.188620919,0,0.8,96,0
FRSM,6/21/11,0.451041668,0.321507889,0.1,1,96,0
FRSM,6/22/11,0.752083331,0.112370778,0.5,1,96,0
FRSM,6/23/11,0.45729167,0.221831984,0.1,0.8,96,0
FRSM,6/24/11,0.783333334,0.086653167,0.5,0.9,96,0
FRSM,6/25/11,0.855208329,0.100388496,0.6,1,96,0
FRSM,6/26/11,0.730208334,0.082231753,0.5,0.9,96,0
FRSM,6/27/11,0.553125006,0.098358232,0.4,0.7,96,0
FRSM,6/28/11,0.66354167,0.119753946,0.4,0.9,96,0
FRSM,6/29/11,0.769791665,0.072721231,0.6,1,96,0
FRSM,6/30/11,0.710416661,0.065661277,0.5,0.9,96,0
FRSM,7/1/11,0.839583323,0.074662977,0.7,1,96,0
FRSM,7/2/11,0.791666659,0.093658576,0.6,1,96,0
FRSM,7/3/11,0.725,0.138412039,0.4,1,96,0
FRSM,7/4/11,0.200000004,0.104629676,0.1,0.4,96,0
FRSM,7/5/11,0.675000004,0.172900943,0.1,0.9,96,0
FRSM,7/6/11,0.812499998,0.097602841,0.5,1,96,0
FRSM,7/7/11,0.70520833,0.058704956,0.5,0.8,96,0
FRSM,7/8/11,0.734374998,0.051967864,0.6,0.8,96,0
FRSM,7/9/11,0.659375004,0.136557776,0.2,0.8,96,0
FRSM,7/10/11,0.427083338,0.30104351,0,0.8,96,0
FRSM,7/11/11,0.792708341,0.039054059,0.7,0.9,96,0
FRSM,7/12/11,0.855208328,0.072358444,0.7,1.1,96,0
FRSM,7/13/11,0.723958336,0.144909981,0.4,1,96,0
FRSM,7/14/11,0.477083343,0.139532429,0.1,0.7,96,0
FRSM,7/15/11,0.452083336,0.237078338,0,0.9,96,0
FRSM,7/16/11,0.082291668,0.139920875,-0.1,0.5,96,0
FRSM,7/17/11,0.321875003,0.310247144,0,0.8,96,0
FRSM,7/18/11,0.163541669,0.056419094,0.1,0.3,96,0
FRSM,7/19/11,0.165625003,0.066218342,0.1,0.3,96,0
FRSM,7/20/11,0.317708339,0.165430726,0.1,0.7,96,0
FRSM,7/21/11,0.709375,0.083449478,0.4,0.9,96,0
FRSM,7/22/11,0.488541673,0.248731431,0.1,0.9,96,0
FRSM,7/23/11,0.860416659,0.070306336,0.6,1,96,0
FRSM,7/24/11,0.622916668,0.17620512,0.3,1.1,96,0
FRSM,7/25/11,0.746875008,0.130547932,0.3,0.9,96,0
FRSM,7/26/11,0.739583333,0.107094809,0.4,1,96,0
FRSM,7/27/11,0.770833336,0.095053071,0.5,1,96,0
FRSM,7/28/11,0.235416673,0.087031959,0.1,0.5,96,0
FRSM,7/29/11,0.555208341,0.132878881,0.3,0.7,96,0
FRSM,7/30/11,0.693749997,0.080540935,0.5,0.8,96,0
FRSM,7/31/11,0.381250002,0.347415268,-0.1,0.9,96,0
FRSM,8/1/11,0.100000002,0.072547627,0,0.3,96,0
FRSM,8/2/11,0.117708336,0.120520621,0,0.4,96,0
FRSM,8/3/11,0.609375004,0.275328749,0.1,0.9,96,0
FRSM,8/4/11,0.864583324,0.098386097,0.7,1,96,0
FRSM,8/5/11,0.737499998,0.12916737,0.5,1.1,96,0
FRSM,8/6/11,0.761458327,0.094445514,0.6,1,96,0
FRSM,8/7/11,0.753125,0.101518081,0.4,1,96,0
FRSM,8/8/11,0.836458325,0.087201868,0.7,1,96,0
FRSM,8/9/11,0.768749998,0.075828755,0.6,1,96,0
FRSM,8/10/11,0.735416664,0.05424927,0.6,0.9,96,0
FRSM,8/11/11,0.767708333,0.062399046,0.7,0.9,96,0
FRSM,8/12/11,0.937499993,0.084914826,0.8,1.1,96,0
FRSM,8/13/11,0.663541664,0.344007277,-0.1,1,96,0
FRSM,8/14/11,0.440625,0.307649188,0,0.9,96,0
FRSM,8/15/11,0.891666663,0.114860708,0.6,1.1,96,0
FRSM,8/16/11,0.796875,0.168243631,0.4,1.1,96,0
FRSM,8/17/11,0.82708333,0.116509913,0.6,1,96,0
FRSM,8/18/11,0.72291667,0.147597717,0.5,1.1,96,0
FRSM,8/19/11,0.749999999,0.063245558,0.6,0.9,96,0
FRSM,8/20/11,0.661458336,0.063858041,0.5,0.8,96,0
FRSM,8/21/11,0.576041675,0.136686185,0.2,0.9,96,0
FRSM,8/22/11,0.466666673,0.19394338,0.2,0.8,96,0
FRSM,8/23/11,0.487500004,0.311617176,0,0.8,96,0
FRSM,8/24/11,0.133333336,0.102255273,0,0.6,96,0
FRSM,8/25/11,0.36770834,0.2134897,0.1,0.8,96,0
FRSM,8/26/11,0.53020834,0.177775608,0.2,0.9,96,0
FRSM,8/27/11,0.646875002,0.112346382,0.3,0.8,96,0
FRSM,8/28/11,0.323958337,0.275201283,-0.1,0.8,96,0
FRSM,8/29/11,0.283333339,0.15469268,0,0.6,96,0
FRSM,8/30/11,0.308333341,0.133508659,0.1,0.7,96,0
FRSM,8/31/11,0.229166671,0.111371043,0,0.5,96,0
FRSM,9/1/11,0.457291669,0.203001054,0.1,0.9,96,0
FRSM,9/2/11,0.743750001,0.122097887,0.4,1,96,0
FRSM,9/3/11,0.801041667,0.179176353,0.3,1.2,96,0
FRSM,9/4/11,0.798958329,0.170753613,0.3,1.1,96,0
FRSM,9/5/11,0.74895833,0.228032673,0.1,1,96,0
FRSM,9/6/11,0.722916669,0.235071842,0,1,96,0
FRSM,9/7/11,0.43229167,0.335761442,-0.5,1,96,0
FRSM,9/8/11,0.180208336,0.270134393,-0.3,0.7,96,0
FRSM,9/9/11,0.258333335,0.338624671,-0.2,0.8,96,0
FRSM,9/10/11,-0.003125001,0.147579152,-0.4,0.2,96,0
FRSM,9/11/11,0.050000001,0.161571237,-0.3,0.3,96,0
FRSM,9/12/11,0.271875006,0.228359428,-0.1,0.7,96,0
FRSM,9/13/11,0.323958336,0.360918362,-0.4,0.8,96,0
FRSM,9/14/11,0.560416665,0.428333163,-0.5,1.1,96,0
FRSM,9/15/11,0.552083335,0.409101496,-0.9,1.1,96,0
FRSM,9/16/11,0.491666664,0.502973615,-0.6,1.1,96,0
FRSM,9/17/11,0.488541664,0.520297444,-0.6,1.1,96,0
FRSM,9/18/11,0.490624995,0.58849999,-0.7,1.2,96,0
FRSM,9/19/11,0.408333329,0.565251068,-0.8,1,96,0
FRSM,9/20/11,0.343749998,0.582519482,-0.9,0.9,96,0
FRSM,9/21/11,0.351041667,0.546567238,-0.9,0.9,96,0
FRSM,9/22/11,0.278125001,0.631989862,-1.1,1,96,0
FRSM,9/23/11,0.282291667,0.547721563,-1.2,0.9,96,0
FRSM,9/24/11,-0.068749999,0.740030231,-1.9,0.8,96,0
FRSM,9/25/11,0.071875003,0.735663413,-1.4,0.9,96,0
FRSM,9/26/11,0.054166669,0.759351059,-1.5,0.8,96,0
FRSM,9/27/11,-0.006249998,0.469672343,-1,0.8,96,0
FRSM,9/28/11,0.220833331,0.689609608,-1.7,0.9,96,0
FRSM,9/29/11,0.017708336,0.745088448,-1.8,0.8,96,0
FRSM,9/30/11,-0.048958334,0.871899904,-1.9,0.8,96,0
FRSM,10/1/11,-0.065625,0.808875529,-1.8,0.8,96,0
FRSM,10/2/11,-0.148958333,0.90040866,-2.2,0.8,96,0
FRSM,10/3/11,-0.012499999,0.531383502,-1.6,0.7,96,0
FRSM,10/4/11,-0.105208332,1.041493844,-2,0.9,96,0
FRSM,10/5/11,-0.266666666,1.106599019,-2.1,0.9,96,0
FRSM,10/6/11,-0.173958331,0.711002969,-1.6,0.9,96,0
FRSM,10/7/11,-0.238541665,0.871341348,-2.2,0.9,96,0
FRSM,10/8/11,-0.160416673,1.135501662,-2.3,1.1,96,0
FRSM,10/9/11,-0.21875,1.135949636,-2.7,1.2,96,0
FRSM,10/10/11,-0.321874999,0.99273181,-2.4,0.9,96,0
FRSM,10/11/11,-0.165625,0.488570014,-1,0.8,96,0
FRSM,10/12/11,0.16979167,0.202676719,-0.4,0.8,96,0
FRSM,10/13/11,-0.22916666,0.966591038,-2.3,0.9,96,0
FRSM,10/14/11,-0.386458329,1.195396413,-2.8,1.1,96,0
FRSM,10/15/11,-0.436458336,1.157048861,-2.7,0.9,96,0
FRSM,10/16/11,-0.537500001,1.281713493,-2.8,0.9,96,0
FRSM,10/17/11,-0.457291668,1.238568341,-2.6,1,96,0
FRSM,10/18/11,-0.514583332,1.281444833,-2.6,1,96,0
FRSM,10/19/11,-0.676041665,1.386684406,-3,1.1,96,0
FRSM,10/20/11,-0.782291671,1.523223371,-3.4,1,96,0
FRSM,10/21/11,-0.505208334,0.959645753,-2.7,0.8,96,0
FRSM,10/22/11,-0.747916663,1.40240238,-3.2,0.9,96,0
FRSM,10/23/11,-0.88020833,1.452012734,-3.2,1,96,0
FRSM,10/24/11,-0.918749997,1.495207255,-3.4,0.9,96,0
FRSM,10/25/11,-0.426041663,0.81914523,-1.9,0.8,96,0
FRSM,10/26/11,-0.521874997,0.789697226,-1.8,0.8,96,0
FRSM,10/27/11,-0.696874993,0.998678393,-2.6,0.8,96,0
FRSM,10/28/11,-1.019791669,1.686142888,-3.8,1.1,96,0
FRSM,10/29/11,-1.195833325,1.72571367,-4.2,1.1,96,0
FRSM,10/30/11,-1.117708325,1.748743582,-4,1,96,0
FRSM,10/31/11,-0.973958332,1.249273033,-3.3,0.8,96,0
FRSM,11/1/11,-0.869791662,0.884381406,-2.5,0.5,96,0
FRSM,11/2/11,-1.139583327,1.603514497,-4.2,0.7,96,0
FRSM,11/3/11,-1.315624994,1.780853016,-4.2,1.2,96,0
FRSM,11/4/11,-1.437499987,1.926941929,-4.5,1.4,96,0
FRSM,11/5/11,-1.392708329,1.747192923,-4.1,1.3,96,0
FRSM,11/6/11,-1.028125002,1.251752719,-4.5,0.6,96,0
FRSM,11/7/11,-1.484374999,1.575692203,-3.9,1,96,0
FRSM,11/8/11,-1.621874997,1.879260941,-4.6,1.3,96,0
FRSM,11/9/11,-1.454166668,1.756846264,-4.5,1.2,96,0
FRSM,11/10/11,-1.632291665,1.757599726,-4.4,0.7,96,0
FRSM,11/11/11,-1.629166656,1.678653369,-4.4,0.8,96,0
FRSM,11/12/11,-1.192708337,1.158969128,-3.7,0.4,96,0
FRSM,11/13/11,-1.638541677,1.778430418,-4.8,1.3,96,0
FRSM,11/14/11,-1.856249996,2.045627551,-5.2,1.4,96,0
FRSM,11/15/11,-1.866666674,2.055220144,-5.1,1.4,96,0
FRSM,11/16/11,-1.919791658,2.114342981,-5.2,1.6,96,0
FRSM,11/17/11,-1.621875007,1.818571055,-4.5,1.4,96,0
FRSM,11/18/11,-1.797916668,1.828717084,-4.7,1.2,96,0
FRSM,11/19/11,-1.780208338,1.632280925,-4.4,1,96,0
FRSM,11/20/11,-1.475000004,1.300283376,-4.8,-0.1,96,0
FRSM,11/21/11,-1.744791662,1.657764485,-5.2,0.5,96,0
FRSM,11/22/11,-1.851041657,1.551704982,-4.4,1,96,0
FRSM,11/23/11,-1.596874986,1.479932642,-5.1,0.8,96,0
FRSM,11/24/11,-1.741666666,1.559734562,-4.9,0.2,96,0
FRSM,11/25/11,-1.262500001,1.147101614,-4.5,0.3,96,0
FRSM,11/26/11,-2.106250004,1.754141708,-6.1,0.8,96,0
FRSM,11/27/11,-1.931249998,1.87169007,-5.3,1.2,96,0
FRSM,11/28/11,-2.398958338,1.957683637,-5.4,1.5,96,0
FRSM,11/29/11,-2.244791683,2.077137216,-5.5,1.6,96,0
FRSM,11/30/11,-2.005208327,1.71466551,-4.8,1.5,96,0
FRSM,12/1/11,-2.273958335,1.946616217,-5.2,1.3,96,0
FRSM,12/2/11,-2.324999978,1.879585602,-5.5,1.6,96,0
FRSM,12/3/11,-2.058333325,1.763409762,-5.7,1.4,96,0
FRSM,12/4/11,-2.376041646,1.822071954,-5.8,1,96,0
FRSM,12/5/11,-2.271875003,1.886221684,-5.6,1.1,96,0
FRSM,12/6/11,-2.535416659,2.090780716,-6,1.2,96,0
FRSM,12/7/11,-1.269791666,1.542937718,-6.3,1.3,96,0
FRSM,12/8/11,-1.334374994,1.254870769,-4.1,1.9,96,0
FRSM,12/9/11,-2.188541682,1.623243676,-6.3,-0.2,96,0
FRSM,12/10/11,-2.594791672,2.088684801,-6.8,0.2,96,0
FRSM,12/11/11,-2.275000008,1.739146803,-5.8,0.1,96,0
FRSM,12/12/11,-0.990624998,0.649870929,-2.3,-0.1,96,0
FRSM,12/13/11,-0.701041667,0.485905508,-2,-0.1,96,0
FRSM,12/14/11,-0.650000001,0.773950894,-3.3,0.1,46,0
FRSM,1/27/12,-1.573999994,1.219369184,-4.6,0.7,50,0
FRSM,1/28/12,-1.499999993,1.537256605,-4.2,0.6,96,0
FRSM,1/29/12,-1.725000001,1.811890559,-4.6,1.2,96,0
FRSM,1/30/12,-1.319791662,1.626531323,-4.6,1.2,96,0
FRSM,1/31/12,-0.951041671,1.164564057,-3.9,1,96,0
FRSM,2/1/12,-1.566666659,2.064214719,-5.2,1,96,0
FRSM,2/2/12,-0.9125,1.013721648,-2.6,0.7,96,0
FRSM,2/3/12,-1.455208329,1.455723346,-4.6,0.4,96,0
FRSM,2/4/12,-1.553124998,1.754750133,-4.8,0.9,96,0
FRSM,2/5/12,-0.780208327,1.061143348,-2.7,1,96,0
FRSM,2/6/12,-1.181249997,1.138726203,-4.1,0.4,96,0
FRSM,2/7/12,-1.516666663,1.728502043,-4.5,0.6,96,0
FRSM,2/8/12,-1.423958328,1.709831929,-4.5,1.2,96,0
FRSM,2/9/12,-1.336458327,1.800591703,-4.3,1.2,96,0
FRSM,2/10/12,-1.183333332,1.705327051,-3.6,1.3,96,0
FRSM,2/11/12,-1.267708323,1.896173134,-4.3,1.2,96,0
FRSM,2/12/12,-0.321875,0.777337312,-1.4,1.1,96,0
FRSM,2/13/12,0.017708334,0.154915799,-0.3,0.4,96,0
FRSM,2/14/12,-0.271874995,0.97091418,-3,1.2,96,0
FRSM,2/15/12,-0.659374992,1.365251322,-2.6,1.2,96,0
FRSM,2/16/12,-0.955208339,1.685971215,-3.7,1.2,96,0
FRSM,2/17/12,-0.780208334,1.508964079,-3.3,1.2,96,0
FRSM,2/18/12,-0.916666666,1.505265607,-3.4,1,96,0
FRSM,2/19/12,-0.187500002,0.212379999,-0.9,0.1,96,0
FRSM,2/20/12,-0.10625,0.539553918,-1.5,0.6,96,0
FRSM,2/21/12,-0.091666665,0.850593184,-2.1,1.1,96,0
FRSM,2/22/12,-0.338541666,1.11055887,-2.4,1,96,0
FRSM,2/23/12,-0.512499998,1.262182732,-2.7,1.1,96,0
FRSM,2/24/12,-0.471874997,1.389411319,-2.9,1.1,96,0
FRSM,2/25/12,-0.509375001,1.339212503,-2.9,1.1,96,0
FRSM,2/26/12,-0.112500002,0.226297433,-0.5,0.3,96,0
FRSM,2/27/12,-0.398958328,0.942616147,-2.2,1,96,0
FRSM,2/28/12,-0.295833329,1.080927151,-2.5,0.8,96,0
FRSM,2/29/12,-0.418749993,1.075107088,-2.6,1,96,0
FRSM,3/1/12,-0.334374996,1.210117702,-2.6,1.1,96,0
FRSM,3/2/12,-0.306249995,1.117969257,-2.4,0.9,96,0
FRSM,3/3/12,-0.333333329,1.190901176,-2.5,0.9,96,0
FRSM,3/4/12,-0.290625001,1.134444275,-2.3,0.9,96,0
FRSM,3/5/12,-0.209374995,1.051222653,-2.3,0.8,96,0
FRSM,3/6/12,-0.173958334,1.069209719,-2.2,0.9,96,0
FRSM,3/7/12,-0.163541669,1.139355282,-2.3,0.9,96,0
FRSM,3/8/12,-0.02604167,0.897979576,-1.9,0.9,96,0
FRSM,3/9/12,-0.13958333,1.102387743,-2.1,1,96,0
FRSM,3/10/12,-0.180208331,1.07631142,-2.9,0.9,96,0
FRSM,3/11/12,0.112500003,0.609443233,-1.9,0.8,96,0
FRSM,3/12/12,0.049999995,0.842677436,-1.5,0.9,96,0
FRSM,3/13/12,0.071875,0.801144337,-1.7,0.9,96,0
FRSM,3/14/12,-0.067708327,0.764817804,-1.8,0.9,96,0
FRSM,3/15/12,0.060416665,0.880248669,-1.7,1,96,0
FRSM,3/16/12,0.148958333,0.843051446,-1.5,1,96,0
FRSM,3/17/12,0.235416668,0.551548865,-0.8,0.8,96,0
FRSM,3/18/12,0.148958332,0.762957508,-1.4,1,96,0
FRSM,3/19/12,0.229166664,0.789259031,-1.3,1,96,0
FRSM,3/20/12,0.165625001,0.740814371,-1.4,0.9,96,0
FRSM,3/21/12,0.227083332,0.713697448,-1.2,0.9,96,0
FRSM,3/22/12,0.319791667,0.664057668,-1,0.9,96,0
FRSM,3/23/12,0.298958333,0.524854828,-0.8,0.9,96,0
FRSM,3/24/12,0.334375004,0.489646088,-0.9,0.9,96,0
FRSM,3/25/12,0.354166668,0.630775074,-1,0.9,96,0
FRSM,3/26/12,0.126041665,0.492735605,-0.7,0.9,96,0
FRSM,3/27/12,0.088541668,0.270231792,-0.7,0.6,96,0
FRSM,3/28/12,0.307291671,0.489950543,-0.9,0.8,96,0
FRSM,3/29/12,0.297916673,0.302960545,-0.6,0.7,96,0
FRSM,3/30/12,0.281250006,0.286287494,-0.6,0.7,96,0
FRSM,3/31/12,0.386458333,0.34962229,-0.4,0.8,96,0
FRSM,4/1/12,0.486458345,0.247777405,-0.7,0.7,96,0
FRSM,4/2/12,0.588541668,0.356848722,-0.3,0.9,96,0
FRSM,4/3/12,0.636458334,0.356627416,-0.3,1,96,0
FRSM,4/4/12,0.671874995,0.326610378,-0.2,1,96,0
FRSM,4/5/12,0.595833332,0.315199737,-0.2,1,96,0
FRSM,4/6/12,0.473958334,0.360188488,-0.6,0.9,96,0
FRSM,4/7/12,0.573958333,0.219206601,-0.1,0.8,96,0
FRSM,4/8/12,0.602083332,0.188053274,0,0.8,96,0
FRSM,4/9/12,0.650000002,0.145095246,0.1,0.9,96,0
FRSM,4/10/12,0.733333336,0.119354989,0.3,1,96,0
FRSM,4/11/12,0.565625,0.214146098,-0.1,0.8,96,0
FRSM,4/12/12,0.396875006,0.197592417,0,0.7,96,0
FRSM,4/13/12,0.848958328,0.083344292,0.7,1.1,96,0
FRSM,4/14/12,0.778124993,0.110694565,0.6,0.9,96,0
FRSM,4/15/12,0.625000003,0.158280228,0.1,0.8,96,0
FRSM,4/16/12,0.555208338,0.203065865,0.1,0.8,96,0
FRSM,4/17/12,0.632291668,0.136493521,0,0.8,96,0
FRSM,4/18/12,0.636458336,0.19527028,0,0.8,96,0
FRSM,4/19/12,0.548958342,0.144364154,0.3,0.9,96,0
FRSM,4/20/12,0.720833334,0.107523967,0.4,0.9,96,0
FRSM,4/21/12,0.76979166,0.085986276,0.6,0.9,96,0
FRSM,4/22/12,0.40208334,0.213728392,0,0.8,96,0
FRSM,4/23/12,0.551041672,0.204679357,0.1,0.9,96,0
FRSM,4/24/12,0.550000001,0.321182027,-0.1,1,96,0
FRSM,4/25/12,0.241666673,0.064345562,0.1,0.4,96,0
FRSM,4/26/12,0.470833339,0.243620353,0.2,0.8,96,0
FRSM,4/27/12,0.592708339,0.166224191,0.2,0.9,96,0
FRSM,4/28/12,0.646875005,0.139135015,0.4,0.9,96,0
FRSM,4/29/12,0.782291673,0.050251564,0.6,0.9,96,0
FRSM,4/30/12,0.718749998,0.072999639,0.5,0.9,96,0
FRSM,5/1/12,0.669791666,0.256338504,0,1.1,96,0
FRSM,5/2/12,0.187500003,0.187644683,-0.1,0.5,96,0
FRSM,5/3/12,0.438541672,0.157192331,0.1,0.8,96,0
FRSM,5/4/12,0.383333343,0.144853227,0.1,0.6,96,0
FRSM,5/5/12,0.331250008,0.140159687,0.2,0.7,96,0
FRSM,5/6/12,0.433333344,0.178689187,0.1,0.8,96,0
FRSM,5/7/12,0.558333338,0.19610237,0.1,0.8,96,0
FRSM,5/8/12,0.372916675,0.148309187,0.2,0.7,96,0
FRSM,5/9/12,0.693750002,0.154791874,0.4,1,96,0
FRSM,5/10/12,0.725000001,0.152177176,0.3,1,96,0
FRSM,5/11/12,0.589583333,0.165102301,0.2,0.8,96,0
FRSM,5/12/12,0.591666669,0.265832024,0.2,1,96,0
FRSM,5/13/12,0.857291664,0.104372603,0.7,1.1,96,0
FRSM,5/14/12,0.639583333,0.23146179,0.1,1,96,0